Location: Gennes
(47.3333°N, 0.2333°W)
Time: 18:04:36
(UTC+00:00)

Daily predictions for brighter satellites

Satellite Brightness Start Highest point End
(mag) Time Altitude Azimuth Time Altitude Azimuth Time Altitude Azimuth
USA 234 4.4 19:52:50 10° NE 19:58:59 45° NNW 20:05:08 10° W
Cosmos 923 Rocket 4.1 19:54:32 10° S 19:59:49 66° ESE 20:05:07 10° NNE
OBJECT-B 1.8 19:57:13 10° S 20:00:19 47° W 20:03:27 10° NNW
BREEZE-M DEB (TANK) 3.5 20:00:54 10° WNW 20:03:49 64° SSW 20:11:59 10° ESE
Cosmos 2219 Rocket 3.6 20:00:12 10° N 20:04:47 25° NE 20:09:19 10° E
Meteor 2-15 4.5 19:58:49 10° N 20:04:55 88° E 20:10:59 10° S
SJ-6B 3.5 20:03:21 10° S 20:06:59 53° W 20:10:42 10° NNW
Resurs 1-3 3.6 20:03:03 10° SSE 20:07:27 83° ENE 20:11:51 10° NNW
Cosmos 2056 Rocket 3.9 20:04:47 10° NNW 20:10:01 52° ENE 20:15:08 10° SE
ATLAS 5 CENTAUR R/B 3.5 20:06:02 10° NNW 20:10:39 30° NE 20:16:00 10° E
USA 186 3.9 20:12:12 10° SSW 20:14:20 20° W 20:16:23 10° NW
SPOT 1/Viking Rocket 4.1 20:14:49 10° SE 20:19:43 43° ENE 20:24:38 10° N
USA 245 4.5 20:16:53 10° SE 20:20:26 27° ENE 20:23:24 10° NNE
Cosmos 1092 Rocket 4.0 20:15:11 10° S 20:21:28 79° E 20:27:50 10° N
NOSS 2-1 (E) 2.9 20:18:21 10° SSW 20:21:35 55° SE 20:24:55 10° NE
Cosmos 2026 Rocket 4.0 20:18:54 10° S 20:25:09 69° E 20:31:20 10° NNE
SL-16 R/B 2.8 20:21:03 10° NW 20:26:37 57° WSW 20:32:09 10° S
IGS 5A 3.4 20:23:58 10° SSE 20:28:06 80° ENE 20:32:16 10° N
GP-B 3.5 20:24:52 10° NNE 20:29:10 46° E 20:33:25 10° SSE
Meteor 1-26 Rocket 4.4 20:24:52 10° NNW 20:30:46 80° W 20:36:26 10° S
Cosmos 1151 Rocket 3.0 20:27:11 10° N 20:31:34 69° E 20:35:56 10° SSE
Cosmos 1680 Rocket 3.6 20:26:58 10° SSW 20:32:14 88° WNW 20:37:32 10° NNE
Cosmos 1371 Rocket 4.1 20:26:57 10° NNW 20:32:22 86° ENE 20:37:42 10° SSE
NOSS 3-1 (C) 4.2 20:25:52 10° NW 20:33:11 70° NE 20:40:55 13° SE
Cosmos 2112 Rocket 4.0 20:28:48 10° SSW 20:34:05 83° ESE 20:39:22 10° NNE
Lacrosse 5 3.5 20:33:36 13° SE 20:34:07 14° ESE 20:36:35 10° E
Cosmos 1271 Rocket 3.6 20:31:40 10° NNW 20:35:35 51° W 20:39:27 10° S
Okean 3 Rocket 3.7 20:32:27 10° S 20:36:53 61° E 20:41:22 10° NNE
ERS-2 2.1 20:37:52 10° NNE 20:41:32 85° WNW 20:45:09 10° SSW
MetOp-B 4.2 20:36:35 10° SSE 20:41:53 74° ENE 20:47:15 10° N
Cosmos 2237 4.5 20:39:11 10° NNW 20:44:52 69° WSW 20:50:21 11° SSE
COSMOS 2487 3.7 20:45:40 19° SE 20:46:33 21° E 20:49:12 10° NE
Cosmos 1515 Rocket 4.0 20:44:34 10° N 20:48:50 45° ENE 20:51:44 18° SE
COSMOS 2428 3.5 20:44:25 10° NNW 20:49:47 40° NE 20:53:52 16° ESE
GEOS 3 Rocket 3.9 20:45:20 10° NE 20:50:32 74° NW 20:55:39 10° SW
USA 229 DEB 4.2 20:44:11 10° NW 20:51:21 59° NE 20:57:36 16° ESE
USA 229 4.2 20:44:17 10° NW 20:51:27 59° NE 20:57:42 16° ESE
COSMOS 2455 3.1 20:46:44 10° S 20:52:25 46° ESE 20:58:08 10° NE
Cosmos 292 Rocket 3.7 20:51:40 10° NNW 20:56:29 81° ENE 20:59:58 19° SSE
Terra 2.9 20:54:30 17° ESE 20:57:16 30° ENE 21:01:23 10° N
Cosmos 1328 Rocket 3.6 20:53:27 10° N 20:57:55 84° W 21:01:43 14° S
Ariane Rocket 4.2 20:53:16 10° SSW 20:58:00 40° W 21:02:46 10° NNW
Cosmos 1809 Rocket 4.4 20:52:18 10° S 20:58:26 83° E 21:04:35 10° N
Cosmos 2360 Rocket 2.4 20:54:20 10° NNW 20:59:55 67° WSW 21:04:37 15° SSE
Cosmos 1766 Rocket 3.8 20:59:07 10° SSW 21:03:28 69° W 21:07:49 10° N
SPOT 3 Rocket 3.9 20:59:51 10° S 21:05:02 64° WSW 21:10:14 10° NNW
Cosmos 1174 3.6 21:02:33 10° NW 21:05:28 50° WSW 21:06:57 25° S
NOSS 2-1 (C) 4.2 21:02:40 10° WSW 21:05:48 43° NW 21:09:06 10° NNE
Resurs 01 Rocket 2.8 21:05:52 10° SSW 21:10:03 40° W 21:14:17 10° NNW
NOSS 3-1 (A) 4.2 21:04:38 10° NW 21:12:02 74° NE 21:18:16 21° SE
Meteor 2-6 Rocket 4.2 21:06:43 10° NNW 21:12:07 79° W 21:16:31 16° S
Cosmos 2266 Rocket 4.2 21:09:42 18° SSE 21:14:13 52° E 21:20:19 10° NNE
Cosmos 1420 Rocket 4.2 21:10:04 10° NNW 21:15:23 69° WSW 21:19:08 19° S
Cosmos 1812 3.3 21:12:28 10° NNW 21:16:16 54° W 21:19:06 16° SSW
Cosmos 1553 Rocket 4.1 21:11:08 10° NNW 21:17:13 75° W 21:22:39 14° S
Cosmos 1862 3.5 21:16:10 11° SSW 21:20:00 72° W 21:23:58 10° N
Gblst 52 Del rocket 4.4 21:14:29 10° WNW 21:20:26 85° SSW 21:24:54 22° ESE
Meteor 2-21 Rocket 4.4 21:16:34 10° S 21:22:44 82° E 21:28:55 10° N
SL-27 R/B 4.0 21:19:29 10° SW 21:22:51 38° WNW 21:26:16 10° N
ERS-1 Rocket 3.0 21:20:14 25° SSE 21:23:06 69° ENE 21:28:07 10° N
Cosmos 2228 Rocket 3.6 21:20:59 10° N 21:25:15 44° ENE 21:26:53 30° SE
Cosmos 2285 Rocket 4.0 21:23:09 10° NNW 21:29:28 71° ENE 21:33:03 27° SE
Cosmos 2297 Rocket 3.7 21:31:26 18° E 21:31:26 18° E 21:35:04 10° ENE
Cosmos 1805 Rocket 4.2 21:31:35 33° SE 21:32:41 38° E 21:36:48 10° NNE
BREEZE-M DEB (TANK) 2.3 21:26:57 10° WNW 21:33:30 85° NNE 21:34:36 37° E
SPOT 5 2.6 21:31:58 32° SSE 21:34:01 85° ENE 21:38:34 10° NNW
ARIANE 5 R/B 2.6 21:31:52 28° S 21:34:11 80° WSW 21:38:37 10° NNW
Cosmos 2315 Rocket 4.2 21:27:59 10° N 21:34:14 59° ENE 21:37:37 28° SE
NOSS 0 Rocket 4.4 21:28:24 10° NNW 21:34:31 53° NE 21:37:53 26° ESE
Cosmos 2333 Rocket 2.3 21:29:46 10° NNW 21:35:24 72° WSW 21:38:33 27° SSE
Cosmos 2322 Rocket 4.2 21:32:29 10° NW 21:36:38 21° W 21:40:44 10° SSW
Cosmos 2237 Rocket 3.2 21:32:23 10° NNW 21:37:37 36° NE 21:40:34 22° ESE
Cosmos 2322 3.8 21:32:39 10° NNW 21:38:23 72° WSW 21:41:30 28° SSE
Cosmos 1452 Rocket 3.5 21:36:40 10° NNW 21:41:56 79° WSW 21:44:29 31° SSE
Cosmos 1500 Rocket 3.5 21:40:12 28° S 21:42:29 86° ESE 21:46:59 10° N
Cosmos 2227 Rocket 3.8 21:44:49 17° E 21:44:49 17° E 21:47:55 10° ENE
Cosmos 2219 Rocket 2.3 21:43:41 10° NNW 21:49:15 68° WSW 21:51:54 31° S
S3M 4.4 21:45:28 10° NNW 21:51:47 62° W 21:56:13 20° SSW
Sich 1 3.3 21:53:27 45° SE 21:54:07 49° E 21:58:17 10° NNE
ATLAS 5 CENTAUR R/B 2.3 21:50:13 10° NW 21:55:47 77° SW 21:58:39 35° SSE
Cosmos 1515 4.0 21:53:32 10° N 21:57:12 46° ENE 21:57:27 45° E
Spot 2 Rocket 4.4 21:54:15 21° SSW 21:57:22 43° W 22:02:15 10° NNW
Cosmos 1331 Rocket 4.0 21:52:35 10° NNW 21:57:49 70° ENE 21:59:36 41° SE
Meteor 1-27 Rocket 3.9 21:52:42 10° NNW 21:58:24 71° W 22:01:24 29° S
Cosmos 1110 Rocket 4.0 21:53:55 10° NNW 21:59:16 79° ENE 22:01:08 41° SSE
Cosmos 1743 Rocket 4.0 22:02:46 25° SSW 22:05:10 58° WNW 22:09:32 10° N
SL-16 R/B 3.8 22:05:12 10° N 22:09:56 26° NE 22:12:56 17° E
Cosmos 1633 Rocket 3.8 22:10:51 35° E 22:10:51 35° E 22:14:44 10° NNE
Cosmos 494 Rocket 3.9 22:11:18 31° SSW 22:13:48 88° WNW 22:18:59 10° NNE
Lacrosse 5 1.7 22:12:21 17° SW 22:16:17 68° SE 22:21:20 10° NE
IRIDIUM 104 4.3 22:12:19 10° N 22:17:34 78° W 22:19:25 41° S
COSMOS 2487 4.5 22:18:52 13° WSW 22:21:14 25° WNW 22:24:08 10° N
APEX 4.4 22:17:43 26° SSW 22:21:18 85° ESE 22:28:08 10° NNE
Cosmos 1666 Rocket 3.7 22:21:09 55° ESE 22:21:22 56° E 22:25:46 10° NNE
Cosmos 1602 3.6 22:22:55 81° E 22:22:55 81° E 22:26:44 10° N
Nadezhda 2 Rocket 4.5 22:23:47 40° S 22:26:13 75° E 22:32:39 10° NNE
Cosmos 1244 Rocket 4.4 22:30:49 44° S 22:32:54 77° E 22:39:10 10° NNE
COSMOS 2428 3.6 22:28:50 10° NW 22:34:02 38° WSW 22:35:52 30° SW
Terra 2.9 22:33:24 29° SW 22:34:54 37° W 22:39:20 10° NNW
CZ-4C R/B 3.8 22:28:32 10° NW 22:35:04 43° NE 22:41:11 16° ESE
Meteor 1-25 Rocket 4.2 22:33:39 40° SSW 22:35:45 78° WNW 22:41:21 10° N
COBE Rocket 3.7 22:36:50 62° ESE 22:37:25 71° ENE 22:42:11 10° N
COSMOS 2455 4.1 22:32:50 10° WSW 22:38:27 40° NW 22:44:08 10° NNE
Cosmos 2084 Rocket 4.0 22:34:58 10° NW 22:38:56 46° WSW 22:38:56 46° WSW
Meteor 2-4 Rocket 4.0 22:33:30 10° N 22:39:22 59° ENE 22:40:46 47° SE
CZ-3B R/B 2.0 22:30:56 10° WNW 22:39:28 81° SW 22:39:48 73° SSE
Cosmos 1862 Rocket 3.4 22:40:56 10° N 22:45:18 75° E 22:45:19 75° E
Meteor 1-18 Rocket 4.2 22:42:08 10° NNW 22:47:57 85° W 22:49:18 55° S
USA 267 3.8 22:42:49 10° ENE 22:48:10 36° ESE 22:48:10 36° ESE
Cosmos 2219 3.2 22:48:17 55° SE 22:48:56 58° ESE 22:54:36 10° NNE
Meteor 1-5 Rocket 4.5 22:49:36 49° SE 22:50:28 53° E 22:56:14 10° NNE
H-2A R/B 4.3 22:48:29 10° N 22:52:32 46° WNW 22:53:30 38° WSW
Spot 4 3.8 22:52:09 67° ESE 22:52:39 74° ENE 22:57:31 10° N
Okean 1 3.7 22:49:10 10° NNW 22:52:58 55° W 22:52:58 55° W
Cosmos 1707 Rocket 4.0 22:49:12 10° NNW 22:53:27 51° W 22:53:48 49° WSW
Cosmos 1302 Rocket 3.9 22:51:37 10° NNW 22:56:51 74° WSW 22:57:32 64° SSW
TSX-5 4.5 22:57:39 48° WSW 22:58:30 60° NW 23:03:32 10° NNE
Cosmos 1500 3.6 22:59:15 62° NW 22:59:15 62° NW 23:02:43 10° N
Meteor 1-19 Rocket 4.5 22:54:17 10° NNW 22:59:42 57° W 23:00:52 47° SW
Cosmos 1980 3.9 22:54:55 10° NNW 23:00:29 58° WSW 23:01:24 51° SSW
Cosmos 1703 Rocket 4.4 22:57:18 10° N 23:01:20 39° ENE 23:01:20 39° ENE
SL-08 R/B 4.4 23:00:49 51° S 23:02:32 88° W 23:08:42 10° N
STPSAT 2 (USA 217) 4.5 22:58:29 10° NNW 23:03:04 88° W 23:03:04 88° W
Cosmos 909 Rocket 4.3 23:02:47 50° SSE 23:04:12 59° ESE 23:11:47 10° NE
Cosmos 1378 4.4 23:01:16 10° N 23:03:58 33° NE 23:03:58 33° NE
Okean 1-7 3.7 23:05:44 10° N 23:09:33 45° ENE 23:09:33 45° ENE
Cosmos 1269 Rocket 4.0 23:10:35 59° SW 23:11:34 79° WNW 23:16:53 10° NNE
Cosmos 2297 Rocket 2.2 23:13:12 49° SW 23:14:45 78° WNW 23:20:27 10° NNE
Meteor 2-17 Rocket 4.4 23:15:38 59° SSE 23:16:38 70° E 23:22:40 10° NNE
Cosmos 2237 Rocket 2.8 23:16:25 10° NW 23:21:46 43° WSW 23:22:23 41° SW
ALOS 2 2.6 23:23:09 78° NNE 23:23:09 78° NNE 23:27:19 10° NNW
USA 234 3.7 23:18:04 15° E 23:23:33 60° NNE 23:29:59 10° NW
Cosmos 1461 4.3 23:27:18 32° ENE 23:27:18 32° ENE 23:29:59 10° NE
Cosmos 1709 Rocket 4.1 23:26:19 54° SE 23:27:26 62° E 23:33:44 10° NNE
Cosmos 2227 Rocket 2.2 23:26:37 58° SW 23:27:44 81° WNW 23:33:27 10° NNE
Meteor 1-13 Rocket 4.2 23:22:21 10° N 23:28:04 70° ENE 23:28:50 62° ESE
Cosmos 2263 Rocket 3.6 23:33:28 24° E 23:33:28 24° E 23:37:28 10° NE
Cosmos 1745 Rocket 4.1 23:35:14 51° SW 23:36:47 71° W 23:43:09 10° N
Cosmos 1536 3.8 23:40:44 43° NE 23:40:44 43° NE 23:43:44 10° NNE
ATLAS 5 CENTAUR R/B 4.2 23:36:20 10° WNW 23:39:57 17° WSW 23:40:09 17° WSW
Cosmos 1241 Rocket 4.4 23:44:34 59° SSW 23:45:53 79° ESE 23:52:24 10° NE
Okean 3 3.9 23:42:06 10° N 23:45:46 57° NE 23:45:46 57° NE
Cosmos 1869 Rocket 4.0 23:47:06 54° ENE 23:47:06 54° ENE 23:50:55 10° NNE
Nadezhda 1 Rocket 4.5 23:43:46 10° NNW 23:49:55 50° W 23:51:16 43° SW
Cosmos 1666 4.1 23:50:39 32° WNW 23:50:39 32° WNW 23:53:43 10° N
Cosmos 44 3.3 23:45:53 10° NW 23:51:11 78° NE 23:51:25 76° E
Thor Agena Rocket 3.9 23:47:50 10° NNE 23:52:34 48° E 23:52:34 48° E
